Regional Weather Roundup
Issued by NWS

Home | Current Version | Previous Version | Graphics & Text | Print | Product List | Glossary On
Versions: 1 2 3 4 5 6 7 8 9 10 11 12 13 14 15 16 17 18 19 20 21 22 23 24 25 26 27 28 29 30 31 32 33 34 35 36 37 38 39 40 41 42 43 44 45 46 47 48 49 50
000
ASUS44 KMEG 211700
RWRTN
TENNESSEE HOURLY STATE WEATHER ROUNDUP
NATIONAL WEATHER SERVICE MEMPHIS TN
1200 PM CDT SAT APR 21 2018

TNZ002-004-019-021-049-052-054-088>092-211800-
WEST TENNESSEE

CITY           SKY/WX    TMP DP  RH WIND       PRES   REMARKS
MEMPHIS INTL   FAIR      70  41  34 S14       30.21F
NWS MEMPHIS      N/A     71 N/A N/A MISG        N/A
JACKSON        FAIR      71  34  25 S9        30.24F
DYERSBURG      FAIR      69  35  28 E9        30.25F
$$

TNZ008-025-027-028-033-062-065-066-211800-
NORTH MIDDLE TENNESSEE

CITY           SKY/WX    TMP DP  RH WIND       PRES   REMARKS
NASHVILLE      FAIR      69  31  24 VRB5      30.30F
CLARKSVILLE    FAIR      68  36  30 VRB6      30.29F
SMYRNA         FAIR      70  38  31 S6        30.31F
CROSSVILLE     FAIR      63  31  30 VRB5      30.33F
$$

TNZ061-075-076-078-094-096-097-211800-
SOUTH MIDDLE TENNESSEE

CITY           SKY/WX    TMP DP  RH WIND       PRES   REMARKS
$$

TNZ017-018-042-046-047-211800-
NORTHEAST TENNESSEE

CITY           SKY/WX    TMP DP  RH WIND       PRES   REMARKS
TRI CITIES     FAIR      66  31  27 SE6       30.34F
$$

TNZ012-013-036-069-073-074-211800-
CENTRAL EAST TENNESSEE

CITY           SKY/WX    TMP DP  RH WIND       PRES   REMARKS
KNOXVILLE      FAIR      66  35  31 VRB5      30.32F
OAK RIDGE      FAIR      68  33  27 S5        30.33F
$$

TNZ083-085-099-211800-
SOUTHEAST TENNESSEE

CITY           SKY/WX    TMP DP  RH WIND       PRES   REMARKS
CHATTANOOGA    FAIR      67  33  28 SE7       30.32F
$$

SKY/WX REPORTED AS FAIR MEANS FEW OR NO CLOUDS BELOW
12 THOUSAND FEET.





USA.gov is the U.S. government's official web portal to all federal, state and local government web resources and services.